When you browse on this site, cookies collect data to enhance your experience and personalize the content and advertising you see.
Visit our Privacy Policy to learn more. By continuing to use the site, you agree to this use of cookies and data.
  • In Romania
  • List of Countries
  • For 7 days
  • Water Temperature
  • Weather Map
  • Weather Widgets
  • user-avatar
    Login

    Hourly Weather Naftalan

    Today, 5 June, Friday

    Time Temperature Precipitation Wind Pressure Humidity
    00:00 +21°C° 0 mm 1 mps 760 mmHg 76%
    01:00 +21°C° 0 mm 1 mps 760 mmHg 78%
    02:00 +20°C° 0 mm 1 mps 760 mmHg 79%
    03:00 +18°C° 0 mm 0 mps 760 mmHg 81%
    04:00 +21°C° 0 mm 1 mps 761 mmHg 77%
    05:00 +21°C° 0 mm 1 mps 761 mmHg 73%
    06:00 +21°C° 0 mm 2 mps 762 mmHg 69%
    07:00 +24°C° 0 mm 2 mps 762 mmHg 61%
    08:00 +26°C° 0 mm 3 mps 762 mmHg 53%
    09:00 +28°C° 0 mm 3 mps 762 mmHg 45%
    10:00 +29°C° 0 mm 3 mps 762 mmHg 43%
    11:00 +30°C° 0 mm 3 mps 762 mmHg 41%
    12:00 +32°C° 0 mm 4 mps 762 mmHg 40%
    13:00 +30°C° 0 mm 5 mps 762 mmHg 42%
    14:00 +29°C° 0 mm 6 mps 762 mmHg 44%
    15:00 +28°C° 0 mm 7 mps 762 mmHg 46%
    16:00 +27°C° 0 mm 6 mps 762 mmHg 49%
    17:00 +26°C° 0 mm 6 mps 763 mmHg 53%
    18:00 +25°C° 0 mm 5 mps 763 mmHg 56%
    19:00 +25°C° 0 mm 5 mps 763 mmHg 59%
    20:00 +23°C° 0 mm 4 mps 764 mmHg 62%
    21:00 +22°C° 0 mm 3 mps 765 mmHg 65%
    22:00 +22°C° 0 mm 3 mps 765 mmHg 64%
    23:00 +22°C° 0 mm 3 mps 765 mmHg 63%

    Tomorrow, 6 June, Saturday

    Time Temperature Precipitation Wind Pressure Humidity
    00:00 +22°C° 0 mm 4 mps 765 mmHg 62%
    01:00 +22°C° 0 mm 4 mps 766 mmHg 62%
    02:00 +22°C° 0 mm 3 mps 766 mmHg 62%
    03:00 +22°C° 0 mm 3 mps 766 mmHg 62%
    04:00 +22°C° 0 mm 3 mps 766 mmHg 61%
    05:00 +23°C° 0 mm 4 mps 766 mmHg 59%
    06:00 +25°C° 0 mm 4 mps 767 mmHg 57%
    07:00 +26°C° 0 mm 4 mps 767 mmHg 54%
    08:00 +27°C° 0 mm 3 mps 767 mmHg 51%
    09:00 +28°C° 0 mm 3 mps 767 mmHg 48%
    10:00 +28°C° 0 mm 3 mps 767 mmHg 46%
    11:00 +29°C° 0 mm 3 mps 766 mmHg 44%
    12:00 +29°C° 0 mm 4 mps 766 mmHg 43%
    13:00 +29°C° 0 mm 4 mps 766 mmHg 42%
    14:00 +29°C° 0 mm 4 mps 766 mmHg 41%
    15:00 +29°C° 0 mm 4 mps 766 mmHg 41%
    16:00 +29°C° 0 mm 3 mps 766 mmHg 43%
    17:00 +28°C° 0 mm 3 mps 766 mmHg 46%
    18:00 +27°C° 0 mm 3 mps 766 mmHg 48%
    19:00 +26°C° 0 mm 2 mps 766 mmHg 52%
    20:00 +25°C° 0 mm 1 mps 766 mmHg 57%
    21:00 +24°C° 0 mm 1 mps 766 mmHg 61%
    22:00 +24°C° 0 mm 1 mps 766 mmHg 61%
    23:00 +23°C° 0 mm 1 mps 766 mmHg 62%

    Day after tomorrow, 7 June, Sunday

    Time Temperature Precipitation Wind Pressure Humidity
    00:00 +23°C° 0 mm 1 mps 766 mmHg 63%
    01:00 +23°C° 0 mm 1 mps 766 mmHg 63%
    02:00 +23°C° 0 mm 2 mps 766 mmHg 63%
    03:00 +21°C° 0 mm 2 mps 766 mmHg 64%
    04:00 +23°C° 0 mm 2 mps 766 mmHg 61%
    05:00 +24°C° 0 mm 2 mps 766 mmHg 59%
    06:00 +24°C° 0 mm 2 mps 766 mmHg 56%
    07:00 +25°C° 0 mm 2 mps 766 mmHg 53%
    08:00 +26°C° 0 mm 3 mps 766 mmHg 49%
    09:00 +28°C° 0 mm 3 mps 766 mmHg 46%
    10:00 +28°C° 0 mm 3 mps 765 mmHg 45%
    11:00 +29°C° 0 mm 3 mps 765 mmHg 43%
    12:00 +29°C° 0 mm 4 mps 765 mmHg 42%
    13:00 +29°C° 0 mm 4 mps 765 mmHg 42%
    14:00 +29°C° 0 mm 5 mps 764 mmHg 43%
    15:00 +29°C° 0 mm 5 mps 764 mmHg 43%
    16:00 +28°C° 0 mm 5 mps 764 mmHg 46%
    17:00 +27°C° 0 mm 6 mps 764 mmHg 49%
    18:00 +26°C° 0 mm 6 mps 764 mmHg 52%
    19:00 +26°C° 0 mm 5 mps 764 mmHg 57%
    20:00 +25°C° 0 mm 5 mps 764 mmHg 61%
    21:00 +23°C° 0 mm 4 mps 764 mmHg 65%
    22:00 +23°C° 0 mm 4 mps 764 mmHg 68%
    23:00 +22°C° 0 mm 4 mps 764 mmHg 70%

    8 June, Monday

    Time Temperature Precipitation Wind Pressure Humidity
    00:00 +22°C° 0 mm 4 mps 763 mmHg 72%
    01:00 +22°C° 0 mm 4 mps 763 mmHg 73%
    02:00 +22°C° 0 mm 4 mps 763 mmHg 74%
    03:00 +21°C° 0 mm 3 mps 763 mmHg 74%
    04:00 +22°C° 0 mm 3 mps 763 mmHg 70%
    05:00 +24°C° 0 mm 3 mps 762 mmHg 66%
    06:00 +25°C° 0 mm 3 mps 762 mmHg 62%
    07:00 +26°C° 0 mm 4 mps 762 mmHg 56%
    08:00 +28°C° 0 mm 4 mps 762 mmHg 50%
    09:00 +29°C° 0 mm 5 mps 762 mmHg 44%
    10:00 +29°C° 0 mm 5 mps 762 mmHg 42%
    11:00 +30°C° 0 mm 5 mps 762 mmHg 41%
    12:00 +30°C° 0 mm 6 mps 762 mmHg 40%
    13:00 +30°C° 0 mm 6 mps 761 mmHg 40%
    14:00 +30°C° 0 mm 6 mps 761 mmHg 39%
    15:00 +30°C° 0 mm 6 mps 761 mmHg 39%
    16:00 +29°C° 0 mm 6 mps 761 mmHg 42%
    17:00 +28°C° 0 mm 6 mps 761 mmHg 46%
    18:00 +27°C° 0 mm 6 mps 761 mmHg 49%
    19:00 +26°C° 0 mm 6 mps 761 mmHg 54%
    20:00 +25°C° 0 mm 5 mps 761 mmHg 58%
    21:00 +23°C° 0 mm 5 mps 761 mmHg 63%
    22:00 +23°C° 0 mm 5 mps 761 mmHg 65%
    23:00 +23°C° 0 mm 5 mps 761 mmHg 68%

    9 June, Tuesday

    Time Temperature Precipitation Wind Pressure Humidity
    00:00 +23°C° 0 mm 4 mps 761 mmHg 71%
    01:00 +22°C° 0 mm 4 mps 761 mmHg 71%
    02:00 +22°C° 0 mm 4 mps 761 mmHg 72%
    03:00 +22°C° 0 mm 3 mps 760 mmHg 72%
    04:00 +24°C° 0 mm 3 mps 761 mmHg 69%
    05:00 +24°C° 0 mm 3 mps 761 mmHg 65%
    06:00 +25°C° 0 mm 3 mps 761 mmHg 62%
    07:00 +26°C° 0 mm 3 mps 761 mmHg 55%
    08:00 +28°C° 0 mm 4 mps 762 mmHg 49%
    09:00 +29°C° 0 mm 4 mps 762 mmHg 43%
    10:00 +30°C° 0 mm 4 mps 762 mmHg 39%
    11:00 +30°C° 0 mm 4 mps 762 mmHg 36%
    12:00 +32°C° 0 mm 4 mps 762 mmHg 33%
    13:00 +32°C° 0 mm 4 mps 761 mmHg 34%
    14:00 +30°C° 0 mm 4 mps 761 mmHg 34%
    15:00 +30°C° 0 mm 4 mps 760 mmHg 34%
    16:00 +29°C° 0 mm 4 mps 760 mmHg 36%
    17:00 +29°C° 0 mm 3 mps 760 mmHg 38%
    18:00 +28°C° 0 mm 2 mps 760 mmHg 40%
    19:00 +27°C° 0 mm 3 mps 760 mmHg 42%
    20:00 +26°C° 0 mm 3 mps 760 mmHg 44%
    21:00 +25°C° 0 mm 3 mps 760 mmHg 46%
    22:00 +25°C° 0 mm 3 mps 760 mmHg 48%
    23:00 +25°C° 0 mm 2 mps 760 mmHg 49%

    10 June, Wednesday

    Time Temperature Precipitation Wind Pressure Humidity
    00:00 +24°C° 0 mm 2 mps 760 mmHg 50%
    01:00 +24°C° 0 mm 2 mps 760 mmHg 52%
    02:00 +23°C° 0 mm 1 mps 760 mmHg 53%
    03:00 +23°C° 0 mm 1 mps 760 mmHg 55%
    04:00 +23°C° 0.3 mm 1 mps 761 mmHg 55%
    05:00 +24°C° 0.3 mm 1 mps 761 mmHg 56%
    06:00 +24°C° 0.3 mm 1 mps 761 mmHg 56%
    07:00 +26°C° 0.2 mm 1 mps 761 mmHg 51%
    08:00 +28°C° 0.2 mm 1 mps 761 mmHg 45%
    09:00 +30°C° 0.2 mm 2 mps 762 mmHg 39%
    10:00 +31°C° 0.1 mm 2 mps 762 mmHg 35%
    11:00 +33°C° 0.1 mm 3 mps 761 mmHg 32%
    12:00 +35°C° 0.1 mm 3 mps 761 mmHg 28%
    13:00 +35°C° 0 mm 4 mps 761 mmHg 29%
    14:00 +34°C° 0 mm 4 mps 761 mmHg 29%
    15:00 +34°C° 0 mm 5 mps 760 mmHg 30%
    16:00 +33°C° 0 mm 4 mps 760 mmHg 32%
    17:00 +32°C° 0 mm 4 mps 761 mmHg 33%
    18:00 +30°C° 0 mm 3 mps 761 mmHg 35%
    19:00 +29°C° 0 mm 2 mps 761 mmHg 41%
    20:00 +27°C° 0 mm 1 mps 761 mmHg 47%
    21:00 +26°C° 0 mm 1 mps 761 mmHg 53%
    22:00 +25°C° 0 mm 1 mps 761 mmHg 52%
    23:00 +23°C° 0 mm 0 mps 761 mmHg 51%
    Show more